EVA851 RCTP-ZBAA

Flight info

Callsign EVA851
Flight time N/A
Altitude 37000
Route PIANO1C PIANO L3 VIOLA R596 SULEM/K0861S1160 R596 BZ/K0857S1130 A470 EMRID W135 ADBAS/K0861S1160 W135 DOGVI A470 DPX A593 DALIM W157 BEKDO/K0846S1130 W157 AVBOX AVBOX6J
Aircraft A20N/M-SDE2E3FGHIRWXY/LB1

Departure

Time 2026-05-04 09:54
Airport Taiwan Taoyuan International Airport (RCTP)

Arrival

Time N/A
Airport Beijing Capital International Airport (ZBAA)
Time Latitude Longitude Altitude Speed Heading
2026-05-04 09:27 25.07804 121.22911 83 ft 0 kts 139°
2026-05-04 09:42 25.07807 121.22909 86 ft 1 kts 139°
2026-05-04 09:43 25.07810 121.22905 85 ft 1 kts 139°
2026-05-04 09:43 25.07814 121.22902 80 ft 1 kts 139°
2026-05-04 09:43 25.07818 121.22898 79 ft 1 kts 139°
2026-05-04 09:43 25.07824 121.22893 87 ft 1 kts 139°
2026-05-04 09:44 25.07829 121.22888 85 ft 1 kts 139°
2026-05-04 09:44 25.07836 121.22881 86 ft 2 kts 139°
2026-05-04 09:44 25.07844 121.22874 85 ft 2 kts 139°
2026-05-04 09:46 25.07900 121.22862 83 ft 0 kts 225°
2026-05-04 09:49 25.07898 121.22860 83 ft 3 kts 225°
2026-05-04 09:51 25.07599 121.22314 81 ft 25 kts 229°
2026-05-04 09:51 25.07476 121.22158 81 ft 29 kts 229°
2026-05-04 09:51 25.07331 121.21977 84 ft 26 kts 228°
2026-05-04 09:51 25.07312 121.21950 82 ft 4 kts 232°
2026-05-04 09:52 25.07284 121.21913 88 ft 9 kts 230°
2026-05-04 09:52 25.07231 121.21845 84 ft 14 kts 228°
2026-05-04 09:52 25.07180 121.21745 83 ft 16 kts 281°
2026-05-04 09:52 25.07264 121.21649 86 ft 19 kts 327°
2026-05-04 09:53 25.07357 121.21686 82 ft 14 kts 51°
2026-05-04 09:53 25.07372 121.21707 86 ft 0 kts 57°
2026-05-04 09:53 25.07373 121.21708 86 ft 2 kts 56°
2026-05-04 09:53 25.07402 121.21747 83 ft 12 kts 51°
2026-05-04 09:54 25.07504 121.21881 83 ft 54 kts 51°
2026-05-04 09:54 25.07935 121.22429 82 ft 133 kts 49°
2026-05-04 09:54 25.08653 121.23301 487 ft 163 kts 47°
2026-05-04 09:54 25.09477 121.24208 1186 ft 175 kts 50°
2026-05-04 09:55 25.10284 121.25203 2109 ft 185 kts 54°
2026-05-04 09:55 25.11144 121.26375 2239 ft 208 kts 55°
2026-05-04 09:55 25.12071 121.27635 2445 ft 212 kts 54°
2026-05-04 09:55 25.13023 121.28888 2575 ft 214 kts 53°
2026-05-04 09:56 25.14231 121.29877 2689 ft 225 kts 25°
2026-05-04 09:56 25.15826 121.30011 2810 ft 240 kts 356°
2026-05-04 09:56 25.17452 121.29496 2932 ft 244 kts 349°
2026-05-04 09:56 25.19080 121.28987 3050 ft 242 kts 354°
2026-05-04 09:57 25.20727 121.28663 3169 ft 240 kts
2026-05-04 09:57 25.22397 121.28496 3290 ft 241 kts
2026-05-04 09:57 25.24079 121.28423 3630 ft 244 kts
2026-05-04 09:57 25.25789 121.28385 3778 ft 245 kts
2026-05-04 09:58 25.27563 121.28369 3887 ft 260 kts
2026-05-04 09:58 25.29377 121.28346 3985 ft 261 kts
2026-05-04 09:58 25.31198 121.28317 4008 ft 262 kts
2026-05-04 10:00 25.42007 121.32222 4024 ft 245 kts 52°
2026-05-04 10:00 25.43121 121.33653 4022 ft 244 kts 52°
2026-05-04 10:02 25.50060 121.42512 5734 ft 276 kts 51°
2026-05-04 10:04 25.59173 121.54166 7026 ft 294 kts 49°
2026-05-04 10:04 25.60514 121.55884 7042 ft 295 kts 49°
2026-05-04 10:04 25.61857 121.57603 7042 ft 294 kts 49°
2026-05-04 10:04 25.63197 121.59321 7046 ft 294 kts 49°
2026-05-04 10:05 25.64529 121.61031 7042 ft 293 kts 49°
2026-05-04 10:05 25.65839 121.62714 7044 ft 291 kts 49°
2026-05-04 10:05 25.67168 121.64420 7046 ft 292 kts 49°
2026-05-04 10:05 25.68493 121.66122 7046 ft 292 kts 49°
2026-05-04 10:06 25.69821 121.67828 7047 ft 292 kts 49°
2026-05-04 10:06 25.71155 121.69540 7155 ft 297 kts 49°
2026-05-04 10:06 25.72518 121.71294 7725 ft 305 kts 48°
2026-05-04 10:08 25.82199 121.83047 12901 ft 386 kts 32°
2026-05-04 10:08 25.84397 121.84803 13850 ft 394 kts 31°
2026-05-04 10:08 25.86637 121.86604 14706 ft 400 kts 31°
2026-05-04 10:08 25.88906 121.88436 15612 ft 406 kts 31°
2026-05-04 10:09 25.91202 121.90292 16482 ft 412 kts 31°
2026-05-04 10:09 25.93532 121.92178 17321 ft 417 kts 31°
2026-05-04 10:09 25.95896 121.94091 18156 ft 423 kts 31°
2026-05-04 10:09 25.98293 121.96032 18892 ft 429 kts 31°
2026-05-04 10:10 26.00713 121.97994 19651 ft 433 kts 31°
2026-05-04 10:10 26.03158 121.99976 20384 ft 437 kts 30°
2026-05-04 10:10 26.05642 122.01945 21106 ft 441 kts 29°
2026-05-04 10:10 26.08168 122.03910 21836 ft 445 kts 29°
2026-05-04 10:11 26.10725 122.05893 22547 ft 450 kts 29°
2026-05-04 10:11 26.13309 122.07903 23257 ft 455 kts 29°
2026-05-04 10:11 26.15914 122.09936 23901 ft 460 kts 29°
2026-05-04 10:11 26.18549 122.11996 24445 ft 465 kts 29°
2026-05-04 10:12 26.21173 122.14051 24767 ft 469 kts 29°
2026-05-04 10:12 26.23849 122.16150 24941 ft 470 kts 30°
2026-05-04 10:12 26.26527 122.18252 25042 ft 471 kts 30°
2026-05-04 10:12 26.29214 122.20362 25077 ft 472 kts 30°
2026-05-04 10:13 26.31898 122.22471 25077 ft 471 kts 30°
2026-05-04 10:13 26.34577 122.24578 25079 ft 472 kts 30°
2026-05-04 10:13 26.37263 122.26690 25080 ft 472 kts 30°
2026-05-04 10:13 26.39946 122.28802 25079 ft 473 kts 30°
2026-05-04 10:14 26.42635 122.30920 25072 ft 473 kts 30°
2026-05-04 10:14 26.45322 122.33038 25082 ft 473 kts 29°
2026-05-04 10:16 26.64152 122.47908 25081 ft 475 kts 30°
2026-05-04 10:16 26.66846 122.50041 25083 ft 475 kts 30°
2026-05-04 10:16 26.69539 122.52174 25085 ft 475 kts 30°
2026-05-04 10:16 26.72238 122.54314 25083 ft 475 kts 30°
2026-05-04 10:17 26.74932 122.56451 25084 ft 475 kts 30°
2026-05-04 10:17 26.77630 122.58592 25079 ft 475 kts 30°
2026-05-04 10:19 26.96526 122.73624 25090 ft 476 kts 30°
2026-05-04 10:19 26.99227 122.75778 25091 ft 477 kts 30°
2026-05-04 10:19 27.01935 122.77939 25091 ft 477 kts 30°
2026-05-04 10:19 27.04644 122.80101 25087 ft 478 kts 30°
2026-05-04 10:20 27.07354 122.82265 25088 ft 478 kts 30°
2026-05-04 10:20 27.10061 122.84429 25089 ft 478 kts 30°
2026-05-04 10:20 27.12765 122.86593 25090 ft 478 kts 30°
2026-05-04 10:20 27.15480 122.88764 25278 ft 483 kts 30°
2026-05-04 10:21 27.18247 122.90828 25908 ft 478 kts 22°
2026-05-04 10:21 27.21278 122.92274 26438 ft 471 kts
2026-05-04 10:21 27.24464 122.92959 26948 ft 461 kts 355°
2026-05-04 10:21 27.27629 122.92865 27466 ft 449 kts 342°
2026-05-04 10:22 27.33331 122.90584 28489 ft 431 kts 322°
2026-05-04 10:22 27.35944 122.88925 29005 ft 428 kts 317°
2026-05-04 10:22 27.38294 122.86920 29511 ft 421 kts 309°
2026-05-04 10:23 27.40319 122.84564 29992 ft 415 kts 301°
2026-05-04 10:23 27.41933 122.81909 30466 ft 408 kts 291°
2026-05-04 10:25 27.43864 122.60922 34048 ft 379 kts 266°
2026-05-04 10:25 27.43873 122.55992 34093 ft 378 kts 266°
2026-05-04 10:26 27.43879 122.50050 34088 ft 378 kts 266°
2026-05-04 10:26 27.43898 122.44144 34095 ft 379 kts 268°
2026-05-04 10:27 27.44576 122.38222 34092 ft 384 kts 276°
2026-05-04 10:27 27.45629 122.32325 34093 ft 384 kts 275°
2026-05-04 10:28 27.46661 122.26426 34095 ft 383 kts 275°
2026-05-04 10:28 27.47690 122.20533 34095 ft 383 kts 275°
2026-05-04 10:29 27.48716 122.14647 34095 ft 383 kts 275°
2026-05-04 10:29 27.49736 122.08783 34096 ft 383 kts 275°
2026-05-04 10:30 27.50756 122.02897 34095 ft 383 kts 275°
2026-05-04 10:30 27.51777 121.96997 34095 ft 383 kts 275°
2026-05-04 10:31 27.52792 121.91113 34091 ft 383 kts 275°
2026-05-04 10:32 27.56327 121.70504 34099 ft 382 kts 275°
2026-05-04 10:33 27.57330 121.64623 34095 ft 382 kts 275°
2026-05-04 10:33 27.58324 121.58778 34097 ft 381 kts 275°
2026-05-04 10:34 27.59346 121.52900 34102 ft 382 kts 275°
2026-05-04 10:34 27.60397 121.47023 34103 ft 382 kts 275°
2026-05-04 10:35 27.61441 121.41143 34104 ft 382 kts 275°
2026-05-04 10:35 27.62477 121.35273 34097 ft 381 kts 275°
2026-05-04 10:36 27.63509 121.29403 34097 ft 382 kts 275°
2026-05-04 10:36 27.64532 121.23576 34097 ft 381 kts 275°
2026-05-04 10:37 27.65558 121.17710 34094 ft 382 kts 275°
2026-05-04 10:37 27.66584 121.11831 34094 ft 381 kts 275°
2026-05-04 10:39 27.70147 120.91298 34097 ft 382 kts 275°
2026-05-04 10:40 27.71161 120.85419 34095 ft 382 kts 275°
2026-05-04 10:40 27.72174 120.79528 34099 ft 382 kts 275°
2026-05-04 10:41 27.73185 120.73636 34095 ft 382 kts 275°
2026-05-04 10:41 27.74194 120.67741 34095 ft 382 kts 275°
2026-05-04 10:42 27.75398 120.61871 34102 ft 388 kts 281°
2026-05-04 10:42 27.77301 120.56127 34101 ft 392 kts 283°
2026-05-04 10:43 27.79221 120.50374 34100 ft 390 kts 283°
2026-05-04 10:44 27.85869 120.30324 30805 ft 392 kts 284°
2026-05-04 10:45 27.86823 120.27431 30081 ft 390 kts 285°
2026-05-04 10:45 27.87763 120.24594 29564 ft 381 kts 284°
2026-05-04 10:45 27.88682 120.21813 28850 ft 377 kts 285°
2026-05-04 10:45 27.89596 120.19042 28048 ft 375 kts 285°
2026-05-04 10:46 27.90504 120.16288 27299 ft 373 kts 285°
2026-05-04 10:46 27.91406 120.13549 26595 ft 370 kts 285°
2026-05-04 10:46 27.92299 120.10838 25843 ft 368 kts 285°
2026-05-04 10:46 27.93184 120.08150 25176 ft 365 kts 284°
2026-05-04 10:47 27.93826 120.05938 24636 ft 360 kts 283°
2026-05-04 10:47 27.94679 120.03281 24133 ft 356 kts 286°
2026-05-04 10:47 27.95549 120.00714 23849 ft 343 kts 283°
2026-05-04 10:47 27.96349 119.98189 23191 ft 340 kts 283°
2026-05-04 10:49 28.01895 119.81117 18964 ft 318 kts 285°
2026-05-04 10:49 28.02684 119.78745 18661 ft 326 kts 285°
2026-05-04 10:50 28.03482 119.76336 18418 ft 327 kts 285°
2026-05-04 10:51 28.09026 119.59937 16669 ft 324 kts 297°
2026-05-04 10:52 28.10528 119.58008 16419 ft 332 kts 316°
2026-05-04 10:52 28.12577 119.56744 16183 ft 344 kts 335°
2026-05-04 10:52 28.14973 119.56354 15951 ft 355 kts 355°
2026-05-04 10:54 28.29316 119.57205 14571 ft 349 kts 357°
2026-05-04 10:54 28.31731 119.57340 14333 ft 346 kts 358°
2026-05-04 10:56 28.48078 119.58255 12062 ft 330 kts 359°
2026-05-04 10:56 28.50374 119.58399 12057 ft 330 kts 359°
2026-05-04 10:56 28.52669 119.58546 12059 ft 330 kts 359°
2026-05-04 10:57 28.54967 119.58693 12056 ft 330 kts 359°
2026-05-04 10:57 28.57256 119.58836 12061 ft 330 kts 359°
2026-05-04 10:57 28.59548 119.58978 12051 ft 329 kts 359°
2026-05-04 10:57 28.61832 119.59121 12057 ft 330 kts 359°
2026-05-04 10:58 28.64120 119.59264 12052 ft 329 kts 359°
2026-05-04 10:58 28.66380 119.59406 12052 ft 329 kts 359°
2026-05-04 10:58 28.68666 119.59547 12051 ft 329 kts 359°
2026-05-04 10:58 28.70948 119.59688 12047 ft 328 kts 359°
2026-05-04 10:59 28.73227 119.59828 12049 ft 328 kts 359°
2026-05-04 10:59 28.75508 119.59969 12044 ft 328 kts 359°
2026-05-04 10:59 28.77787 119.60111 12045 ft 327 kts 359°
2026-05-04 10:59 28.80057 119.60256 12053 ft 327 kts 359°
2026-05-04 11:00 28.82343 119.60399 12045 ft 328 kts 359°